Location: The Saddle
(36.8333°N, 80.3417°W)
Time: 00:06:21
(UTC-05:00)

ITAMSAT 1 - Visible Passes

Search period start: 27 February 2024 00:00
Search period end: 08 March 2024 00:00
Orbit: 782 x 796 km, 98.8° (Epoch: 26 February)

Date Brightness Start Highest point End Pass type
(mag) Time Alt. Az. Time Alt. Az. Time Alt. Az.
27 Feb 9.0 19:55:08 23° NE 19:55:08 23° NE 19:57:43 10° N visible
27 Feb 10.1 21:35:49 18° NW 21:35:49 18° NW 21:37:17 10° NW visible
28 Feb 9.4 19:24:47 14° NE 19:24:47 14° NE 19:26:40 10° NNE visible
28 Feb 9.3 21:05:29 28° NNW 21:05:29 28° NNW 21:07:54 10° NNW visible
29 Feb 8.7 20:35:09 34° N 20:35:09 34° N 20:38:05 10° N visible
01 Mar 8.7 20:04:49 28° NE 20:04:49 28° NE 20:07:53 10° N visible
01 Mar 10.2 21:45:30 17° NW 21:45:30 17° NW 21:46:58 10° NW visible
02 Mar 9.2 19:34:29 17° NE 19:34:29 17° NE 19:37:09 10° NNE visible
02 Mar 9.4 21:15:10 28° NW 21:15:10 28° NW 21:17:46 10° NNW visible
03 Mar 8.6 20:44:50 39° N 20:44:50 39° N 20:48:04 10° N visible
04 Mar 8.5 20:14:30 34° NE 20:14:30 34° NE 20:18:00 10° N visible
04 Mar 10.3 21:55:12 15° WNW 21:55:12 15° WNW 21:56:33 10° NW visible
05 Mar 8.9 19:44:11 22° NE 19:44:11 22° NE 19:47:29 10° NNE visible
05 Mar 9.5 21:24:52 27° NW 21:24:52 27° NW 21:27:35 10° NNW visible
06 Mar 9.5 19:13:51 11° ENE 19:14:08 11° ENE 19:15:47 10° NE visible
06 Mar 8.5 20:54:32 43° NNW 20:54:32 43° NNW 20:58:01 10° NNW visible
07 Mar 8.2 20:24:13 43° NNE 20:24:13 43° NNE 20:28:04 10° N visible
07 Mar 10.4 22:04:54 13° WNW 22:04:54 13° WNW 22:05:59 10° NW visible
